Weather in Villarrica

Paraguay     25°47′10″S   56°27′38″W
temp.,
°C
wind,
m/s
gust,
m/s
humid.,
%
clouds,
%
prec.,
mm/h
press.,
hPa
HPBL,
m
20 may, fri
fri2023:00+7e11940 0.0 102211
02:00+7ese11960 0.0 102113
05:00+6ene11960 0.0 102118
08:00+10ne23800 0.0 1022193
11:00+17ne23530 0.0 1021869
14:00+19nne23460 0.0 10181139
17:00+13e11710 0.0 101811
20:00+11ene23800 0.0 102035
21 may, sat
sat2123:00+9ene26870 0.0 1020105
02:00+8ne22910 0.0 102038
05:00+8ene119431 0.0 102120
08:00+12ne2476100 0.0 1023155
11:00+18ne2354100 0.0 1022564
14:00+20ene1250100 0.0 1020822
17:00+15ese227784 0.0 101915
20:00+12ese1186100 0.0 102123
22 may, sun
sun2223:00+11e118992 0.0 102126
02:00+10ene129586 0.0 102030
05:00+9ene129517 0.0 101932
08:00+12ese1280100 0.0 102194
11:00+15ene2474100 0.0 1020208
14:00+18ene246684 0.0 1018414
17:00+15e1285100 0.0 101720
20:00+13e12925 0.0 101831
23 may, mon
mon2323:00+12ene12930 0.0 101739
02:00+12ene25930 0.0 101690
05:00+12ene22910 0.0 101637
08:00+16ne27760 0.0 1018194
11:00+23ne24550 0.0 1018638
14:00+25ene34530 0.0 10151059
17:00+19ene26791 0.0 1015117
20:00+17ene310810 0.0 1016223
24 may, tue
tue2423:00+15ene27863 0.0 1016142
02:00+14ene2886100 0.0 1016157
05:00+15ne312810 0.0 1015276
08:00+18ne312730 0.0 1017370
11:00+25ne48501 0.0 1017634
14:00+27ne36500 0.0 1015986
17:00+21ene27740 0.0 1015145
20:00+21ene4126519 0.0 1016337